Regional Weather Roundup
Issued by NWS

Home | Current Version | Previous Version | Text Only | Print | Product List | Glossary Off
Versions: 1 2 3 4 5 6 7 8 9 10 11 12 13 14 15 16 17 18 19 20 21 22 23 24 25 26 27 28 29 30 31 32 33 34 35 36 37 38 39 40 41 42 43 44 45 46 47 48 49 50

000
ASUS43 KDMX 220501
RWRIA

WEATHER ROUNDUP FOR IOWA
NATIONAL WEATHER SERVICE DES MOINES IA
1100 PM CST SAT JAN 21 2017

NOTE: "FAIR" INDICATES FEW OR NO CLOUDS BELOW 12,000 FEET WITH NO
SIGNIFICANT WEATHER AND/OR OBSTRUCTIONS TO VISIBILITY.

* - THESE STATIONS ARE NOT NWS STATIONS...THUS NOT UNDER NWS
QUALITY CONTROL.  THEY ALSO DO NOT REPORT WEATHER SUCH
AS PRECIPITATION OR FOG.

IAZ001>003-012>014-020>022-031>034-043>046-220600-
   NORTHWEST IOWA

CITY           SKY/WX    TMP DP  RH WIND       PRES   REMARKS
CARROLL *      FOG       34  34 100 NW5       29.57R VSB<1/4 WCI  30
CHEROKEE *     CLOUDY    32  31  97 NW7       29.58R WCI  25
DENISON *      CLEAR     30  30 100 N6        29.56R FOG     WCI  24
LE MARS *      CLOUDY    32  30  93 W5        29.60R WCI  27
ORANGE CITY *  CLOUDY    32  30  93 NW9       29.57R WCI  24
SHELDON *      CLOUDY    32  32 100 NW12      29.55R WCI  23
SIOUX CITY     CLEAR     29  27  92 NW5       29.60R WCI  24
SPENCER          N/A     32  30  92 MISG      29.56R
STORM LAKE *   MOCLDY    30  28  93 W5        29.57R FOG     WCI  25
$$

IAZ055>058-069>071-079>083-090>094-220600-
   SOUTHWEST IOWA

CITY           SKY/WX    TMP DP  RH WIND       PRES   REMARKS
ATLANTIC *     FOG       30  30 100 CALM      29.57R VSB<1/4
AUDUBON *      FOG       28  27  93 CALM      29.56S VSB 1/4
CLARINDA *     MOCLDY    30  30 100 NE3       29.59R
COUNCIL BLFS * CLEAR     41  39  93 CALM      29.56R
CRESTON *      FOG       36  36 100 SW5       29.57S VSB 1/4 WCI  32
HARLAN  *      CLEAR     30  30 100 N5        29.59S FOG     WCI  25
LAMONI         FOG       39  38  96 CALM      29.55S VSB 1
RED OAK *      FOG       30  30 100 CALM      29.57R VSB 1/2
SHENANDOAH *   CLEAR     30  30 100 NE5       29.58R WCI  25
$$

IAZ047>049-059>061-072>074-084-220600-
   CENTRAL IOWA

CITY           SKY/WX    TMP DP  RH WIND       PRES   REMARKS
AMES           CLEAR     32  32 100 SW3       29.55S FOG
ANKENY *       FOG       30  30 100 CALM      29.57S VSB<1/4
BOONE *        FOG       36  36 100 CALM      29.55R VSB 3/4
CHARITON *     FOG       30  30 100 CALM      29.57R VSB 1/4
DES MOINES     PTCLDY    35  33  92 CALM      29.56S FOG
GRINNELL*      FOG       32  32  99 CALM      29.57S VSB 1/4
KNOXVILLE *    FOG       34  34 100 S6        29.56S VSB 1/4 WCI  29
MARSHALLTOWN   CLEAR     34  34 100 CALM      29.55S FOG
NEWTON *       FOG       34  34 100 CALM      29.56S VSB<1/4
PELLA *        FOG       33  32  98 CALM      29.59R VSB<1/4
PERRY *        FOG       33  33  99 CALM      29.56R VSB 1/2
$$

IAZ004>006-015-016-023>025-035-036-220600-
   NORTH CENTRAL IOWA

CITY           SKY/WX    TMP DP  RH WIND       PRES   REMARKS
ALGONA *       CLOUDY    32  32 100 W10       29.56R WCI  24
CLARION *      CLOUDY    34  34 100 W7        29.56S WCI  28
ESTHERVILLE    CLOUDY    31  31 100 W9        29.54R WCI  23
FORT DODGE *   CLOUDY    34  30  86 W3        29.57R
MASON CITY     CLOUDY    33  30  88 W8        29.56R WCI  26
FOREST CITY *  CLOUDY    32  32 100 SW7       29.55R WCI  26
WEBSTER CITY * CLOUDY    34 N/A N/A NW5       29.54S WCI  30
IOWA FALLS *   CLOUDY    34  34  99 W3        29.56S FOG
$$

IAZ007>011-017>019-026>030-037>042-050>054-066-220600-
   NORTHEAST IOWA

CITY           SKY/WX    TMP DP  RH WIND       PRES   REMARKS
CEDAR RAPIDS   PTCLDY    34  34 100 S3        29.57R FOG
CHARLES CITY * CLOUDY    34  34 100 SW5       29.56R FOG     WCI  30
CLINTON *      CLOUDY    39  39 100 SW3       29.60S
DECORAH *      CLOUDY    37  37 100 VRB5      29.54S FOG     WCI  34
DUBUQUE        CLOUDY    37  37 100 SW3       29.57S FOG
MONTICELLO *   CLOUDY    37  37 100 CALM      29.57S FOG
OELWEIN *      PTCLDY    36  36 100 W5        29.56S FOG     WCI  32
WATERLOO       FOG       32  31  96 CALM      29.56S VSB 3/4
$$

IAZ064-065-067-068-078-220600-
   EAST CENTRAL IOWA

CITY           SKY/WX    TMP DP  RH WIND       PRES   REMARKS
DAVENPORT      CLOUDY    40  37  89 NW7       29.60S
IOWA CITY      CLOUDY    39  37  92 CALM      29.61R
MUSCATINE *    MOCLDY    37  36  93 CALM      29.60S FOG
QUAD CITIES    CLOUDY    44  38  79 NW3       29.59S
$$

IAZ062-063-075>077-085>089-095>099-220600-
   SOUTHEAST IOWA

CITY           SKY/WX    TMP DP  RH WIND       PRES   REMARKS
BURLINGTON     CLEAR     35  35 100 E3        29.58R FOG
FAIRFIELD *    FOG       30  30 100 CALM      29.58S VSB<1/4
FORT MADISON * FOG       36  36 100 NE5       29.58S VSB 1   WCI  32
KEOKUK *       FOG       37 N/A N/A NE3       29.57S VSB 3/4
OSKALOOSA *    FOG       32  32  99 SE3       29.59S VSB 1/2
CENTERVILLE *  CLOUDY    28  28 100 CALM      29.58R FOG
OTTUMWA        FOG       35  33  92 CALM      29.57S VSB 1/4
WASHINGTON *   FOG       34  32  93 CALM      29.60S VSB<1/4
$$

ABBREVIATIONS USED IN REMARKS
   TC - TEMPERATURES IN CELSIUS
  WCI - WIND CHILL INDEX
   HX - HEAT INDEX
  VSB - VISIBILITY
$$





USA.gov is the U.S. government's official web portal to all federal, state and local government web resources and services.